Location: Cantaing
(50.1487°N, 3.1675°E)
Time: 19:20:03
(UTC+00:00)

Cosmos 2278 Rocket - Pass Details

Date: 14 January 2026
Orbit: 839 x 846 km, 71.0° (Epoch: 13 February)

Event Time Altitude Azimuth Distance (km) Brightness Sun altitude
Rises 05:10:38 0° 182° (S) 3,379 5.4 -23.4°
Reaches altitude 10° 05:13:11 10° 175° (S) 2,450 4.7 -23.0°
Maximum altitude 05:18:22 40° 108° (ESE) 1,231 3.5 -22.2°
Drops below altitude 10° 05:23:36 10° 41° (NE) 2,469 5.0 -21.3°
Sets 05:26:11 0° 34° (NE) 3,410 5.7 -20.9°
